DateTimeUTC,F1_A11,F1_S11,BsB_S11,BsG_S11,BsR_S11,BbsB_S11,BbsG_S11,BbsR_S11,BaB_A11,BaG_A11,BaR_A11,Tu_S11,T_S11,Uu_S11,U_S11,P_S11,T1_A11
2021-08-07T02:00:00Z,00000200,21000000,,,,,,,0000.16,-000.41,-000.68,17.9,25.0,01.4,00.9,0666.2,30.9
2021-08-07T02:01:00Z,00000200,21000000,,,,,,,-000.71,-000.49,-000.33,17.9,25.0,01.2,00.8,0666.2,30.9
2021-08-07T02:02:00Z,00000200,21000000,,,,,,,-000.09,-000.35,-000.11,17.9,25.0,01.2,00.8,0666.2,30.9
2021-08-07T02:03:00Z,00000200,61000000,,,,,,,-000.68,-000.65,-000.60,17.9,25.0,01.2,00.8,0666.2,30.9
2021-08-07T02:04:00Z,00000200,41000000,0000.73,-000.14,0000.13,-000.46,-000.04,0000.01,-000.38,-000.44,-000.43,17.9,24.7,00.8,00.5,0667.1,30.9
2021-08-07T02:05:00Z,00000200,01000000,0000.31,-000.34,0000.07,-000.21,-000.07,-000.05,-001.05,-000.82,-000.92,17.9,24.7,00.6,00.4,0667.2,30.9
2021-08-07T02:06:00Z,00000200,01000000,0000.10,-000.21,0000.18,0000.66,-000.03,0000.22,-000.41,-000.65,-000.74,17.9,24.6,00.4,00.3,0667.2,30.9
2021-08-07T02:07:00Z,00000200,01000000,-000.23,-000.15,0000.11,0000.90,0000.48,-000.04,-000.52,-000.23,-000.13,17.8,24.6,00.3,00.2,0667.2,30.9
2021-08-07T02:08:00Z,00000200,01000000,0000.21,0000.08,0000.07,0000.45,0000.33,-000.02,-000.14,-000.57,-000.29,17.8,24.5,00.2,00.1,0667.2,30.9
2021-08-07T02:09:00Z,00000200,01000000,-000.20,-000.11,-000.24,-000.07,-000.09,-000.35,-000.19,-000.17,-000.26,17.8,24.5,00.1,00.1,0667.2,30.9
2021-08-07T02:10:00Z,00000200,01000000,0000.46,0000.13,0000.24,-000.22,0000.01,0000.02,0001.46,0001.85,0001.50,18.0,24.6,00.2,00.1,0667.2,30.9
2021-08-07T02:11:00Z,00000200,01000000,0000.13,-000.08,0000.02,0000.68,0000.30,-000.07,-001.09,-001.34,-000.79,18.1,24.6,00.3,00.2,0667.1,30.9
2021-08-07T02:12:00Z,00000200,01000000,-000.26,0000.15,0000.17,0000.21,0000.41,-000.09,0000.84,0001.21,0001.11,18.2,24.7,00.3,00.2,0667.1,31.0
2021-08-07T02:13:00Z,00000200,01000000,0000.05,0000.30,0000.15,0000.66,0000.21,-000.39,-000.79,-001.11,-001.05,18.2,24.7,00.3,00.2,0667.1,31.0
2021-08-07T02:14:00Z,00000200,01000000,-000.02,0000.41,-000.22,-000.40,-000.28,0000.02,-000.25,-000.21,-000.41,18.2,24.8,00.2,00.1,0667.1,31.0
2021-08-07T02:15:00Z,00000200,01000000,-000.02,-000.16,0000.24,-000.15,0000.13,-000.15,-000.05,-000.18,-000.09,18.2,24.7,00.3,00.2,0667.0,30.9
2021-08-07T02:16:00Z,00000200,01000000,-000.48,0000.26,0000.26,0000.02,-000.17,-000.09,-000.30,-000.29,-000.31,18.1,24.7,00.2,00.1,0667.0,30.9
2021-08-07T02:17:00Z,00000200,01000000,-000.81,-000.12,0000.11,-000.28,-000.01,-000.08,0000.04,0000.24,0000.03,18.1,24.6,00.2,00.1,0667.1,30.9
2021-08-07T02:18:00Z,00000200,01000000,0000.06,0000.02,0000.28,-000.01,0000.19,-000.07,-000.54,-000.14,-000.20,18.0,24.6,00.2,00.1,0667.0,30.9
2021-08-07T02:19:00Z,00000200,01000000,0000.34,-000.02,-000.09,-000.10,0000.05,0000.19,0000.10,0000.04,-000.08,18.0,24.6,00.2,00.1,0667.0,30.9
2021-08-07T02:20:00Z,00000200,01000000,0000.24,0000.18,0000.21,0000.23,-000.07,0000.29,0000.60,0000.24,0000.62,17.9,24.6,00.2,00.1,0667.0,30.9
2021-08-07T02:21:00Z,00000200,01000000,0000.60,-000.15,-000.05,0000.10,0000.37,-000.11,-000.99,-000.61,-000.79,17.9,24.5,00.2,00.1,0667.1,30.9
2021-08-07T02:22:00Z,00000200,01000000,0000.33,0000.16,0000.25,0000.14,-000.04,0000.03,0000.98,0001.08,0000.89,17.8,24.5,00.1,00.1,0667.1,30.9
2021-08-07T02:23:00Z,00000200,01000000,-000.70,-000.12,0000.30,0000.44,0000.06,0000.16,-001.22,-001.41,-001.19,17.8,24.5,00.2,00.1,0667.1,30.9
2021-08-07T02:24:00Z,00000200,01000000,0000.13,0000.13,0000.02,0000.89,0000.10,0000.13,0000.18,-000.54,-000.34,17.8,24.5,00.1,00.0,0667.0,30.9
2021-08-07T02:25:00Z,00000200,01000000,0000.43,-000.16,0000.20,0000.22,0000.11,0000.27,-000.06,-000.10,0000.04,18.0,24.5,00.0,00.0,0667.0,30.9
2021-08-07T02:26:00Z,00000200,01000000,0000.08,0000.36,0000.29,0000.72,0000.16,-000.12,-000.37,0000.22,-000.11,18.1,24.6,00.0,00.0,0667.0,30.9
2021-08-07T02:27:00Z,00000200,01000000,0000.62,0000.01,0000.07,-000.39,0000.45,-000.00,-000.07,-000.09,-000.11,18.2,24.6,00.0,00.0,0667.0,31.0
2021-08-07T02:28:00Z,00000200,01000000,0000.41,0000.23,0000.14,0000.48,0000.31,-000.07,-000.34,-000.54,-000.38,18.3,24.7,,00.0,0667.0,31.0
2021-08-07T02:29:00Z,00000200,01000000,-000.11,0000.01,0000.07,0000.08,0000.15,0000.27,0000.24,0000.07,-000.21,18.3,24.7,00.0,00.0,0667.0,31.0
2021-08-07T02:30:00Z,00000200,01000000,0000.22,0000.35,0000.37,0000.20,-000.03,-000.09,0000.26,0000.83,0000.66,18.3,24.7,,00.0,0667.0,30.9
2021-08-07T02:31:00Z,00000200,01000000,0000.45,0000.19,0000.38,0000.14,0000.10,0000.02,-000.01,-000.51,-000.26,18.2,24.7,00.0,00.0,0667.1,30.9
2021-08-07T02:32:00Z,00000200,01000000,0000.40,-000.20,0000.36,0000.01,0000.08,-000.13,-000.53,-000.40,-000.43,18.2,24.7,00.0,00.0,0667.1,30.9
2021-08-07T02:33:00Z,00000200,01000000,0000.03,0000.18,0000.17,0000.47,0000.27,0000.24,0000.20,-000.07,0000.05,18.1,24.6,00.0,00.0,0667.1,30.9
2021-08-07T02:34:00Z,00000200,01000000,0000.01,0000.24,0000.49,-000.30,0000.27,0000.21,0000.73,0001.03,0000.93,18.0,24.6,00.0,00.0,0667.0,30.9
2021-08-07T02:35:00Z,00000200,01000000,0000.05,0000.05,0000.13,0000.04,0000.05,0000.03,-000.28,-000.40,-000.18,18.0,24.6,00.0,00.0,0667.0,30.9
2021-08-07T02:36:00Z,00000200,01000000,0001.02,0000.68,0001.10,0000.04,0000.38,0000.27,0008.00,0008.54,0008.24,17.9,24.5,02.3,01.5,0667.0,30.9
2021-08-07T02:37:00Z,00000200,01000000,0000.66,0000.15,0000.13,-000.00,0000.26,-000.20,-003.83,-004.26,-004.06,17.9,24.5,01.2,00.8,0667.0,30.9
2021-08-07T02:38:00Z,00000200,01000000,0001.03,0000.30,0000.02,-000.42,0000.01,0000.28,-000.17,-000.49,-000.67,17.9,24.5,00.2,00.1,0667.0,30.9
2021-08-07T02:39:00Z,00000200,01000000,0000.16,0000.03,0000.06,0000.48,0000.13,-000.19,-000.37,-000.31,-000.33,17.9,24.5,00.1,00.1,0667.0,30.9
2021-08-07T02:40:00Z,00000200,01000000,0000.16,0000.02,0000.35,0000.66,0000.49,0000.03,-000.18,0000.14,0000.01,18.0,24.5,00.1,00.1,0667.0,30.9
2021-08-07T02:41:00Z,00000200,01000000,0000.82,0000.47,0000.50,0000.34,0000.12,0000.15,0000.61,0000.32,0000.19,18.1,24.6,00.1,00.0,0667.0,30.9
2021-08-07T02:42:00Z,00000200,01000000,0000.64,0000.17,0000.61,0000.58,0000.03,0000.26,-000.09,-000.10,0000.01,18.2,24.7,00.1,00.1,0667.0,31.0
2021-08-07T02:43:00Z,00000200,01000000,0000.93,0000.61,0000.24,0000.06,0000.06,0000.00,0000.23,0000.45,0000.40,18.3,24.7,00.0,00.0,0667.0,31.0
2021-08-07T02:44:00Z,00000200,01000000,0000.80,0000.16,0000.10,0000.41,0000.02,-000.28,-000.02,-000.27,-000.38,18.4,24.7,00.1,00.0,0667.0,31.0
2021-08-07T02:45:00Z,00000200,01000000,0000.69,0000.51,0000.38,0000.63,0000.19,0000.34,-000.06,-000.02,-000.05,18.4,24.7,00.0,00.0,0667.0,31.0
2021-08-07T02:46:00Z,00000200,01000000,0000.75,0000.73,0000.00,0000.07,0000.20,-000.02,0000.12,-000.24,-000.34,18.3,24.7,00.0,00.0,0667.0,31.0
2021-08-07T02:47:00Z,00000200,01000000,0000.56,0000.44,0000.38,0000.21,0000.15,0000.08,0000.15,0000.25,0000.35,18.2,24.7,00.1,00.0,0667.0,30.9
2021-08-07T02:48:00Z,00000200,01000000,0001.02,0000.31,0000.54,0000.05,0000.13,-000.10,0000.11,0000.39,-000.07,18.2,24.7,00.0,00.0,0667.0,30.9
2021-08-07T02:49:00Z,00000200,01000000,0001.88,0000.69,0000.68,0000.58,0000.43,0000.16,0000.65,0000.23,0000.55,18.1,24.6,00.1,00.0,0667.1,30.9
2021-08-07T02:50:00Z,00000200,01000000,0001.86,0000.96,0000.70,0000.87,0000.14,0000.10,0000.45,0000.69,0000.13,18.0,24.6,00.0,00.0,0667.1,30.9
2021-08-07T02:51:00Z,00000200,01000000,0001.40,0000.85,0000.40,0000.67,0000.16,0000.14,-000.24,-000.36,0000.01,18.0,24.5,00.1,00.0,0667.1,30.9
2021-08-07T02:52:00Z,00000200,01000000,0002.33,0001.62,0000.83,0000.32,0000.39,0000.33,0000.61,0000.88,0000.34,17.9,24.5,00.0,00.0,0667.1,30.9
2021-08-07T02:53:00Z,00000200,01000000,0001.79,0001.59,0000.77,0001.02,0000.12,-000.07,0000.62,0000.25,0000.58,17.9,24.5,00.0,00.0,0667.1,30.9
2021-08-07T02:54:00Z,00000200,01000000,0002.39,0001.45,0000.65,0000.69,0000.22,0000.16,0000.73,0000.67,0000.48,17.9,24.5,00.0,00.0,0667.0,30.9
2021-08-07T02:55:00Z,00000200,01000000,0002.27,0001.35,0001.12,0001.01,0000.35,0000.34,0000.50,0000.65,0000.20,18.0,24.6,00.0,00.0,0667.0,30.9
2021-08-07T02:56:00Z,00000200,01000000,0002.84,0001.14,0000.41,0000.26,0000.23,-000.13,0000.83,0000.24,0000.57,18.2,24.6,00.0,00.0,0667.0,31.0
2021-08-07T02:57:00Z,00000200,41000000,,,,,,,0001.15,0001.18,0001.38,18.3,24.7,,00.0,0667.0,31.0
2021-08-07T02:58:00Z,00000200,61000000,,,,,,,-000.88,-000.53,-000.83,18.0,24.9,00.0,00.0,0666.0,30.9
2021-08-07T02:59:00Z,00000200,21000000,,,,,,,-000.67,-000.28,-000.51,18.0,25.0,,00.0,0666.0,31.0
